Regional Weather Roundup
Issued by NWS Sterling, VA

Home | Current Version | Previous Version | Graphics & Text | Print | Product List | Glossary On
Versions: 1 2 3 4 5 6 7 8 9 10 11 12 13 14 15 16 17 18 19 20 21 22 23 24 25 26 27 28 29 30 31 32 33 34 35 36 37 38 39 40 41 42 43 44 45 46 47 48 49 50
550
ASUS41 KLWX 160611
RWRLWX

REGIONAL WEATHER ROUNDUP
NATIONAL WEATHER SERVICE BALTIMORE MD/WASHINGTON DC
100 AM EST SAT DEC 16 2017

Note: "FAIR" indicates few or no clouds below 12,000 feet
with no significant weather and/or obstructions to visibility.
 TC=TEMPERATURE CELSIUS

 * =Non NWS site. Station does not report precipitation (e.g. rain,
    snow, etc.), thunder, or fog.

DCZ001-MDZ009-015-VAZ040>042-051-053>054-160700-
WASHINGTON METRO

CITY           SKY/WX    TMP DP  RH WIND       PRES   REMARKS
WASHINGTON NAT MOCLDY    27  23  85 S8        30.05R WCI  19
DULLES         CLOUDY    26  23  88 SW7       30.03R
ANDREWS AFB    CLEAR     22  20  91 SW6       30.03R
FT BELVOIR     CLEAR     19  17  90 CALM      30.05R
QUANTICO       CLEAR     24  22  91 W3        30.08R
COLLEGE PARK*  CLOUDY    24  23  93 CALM      30.04R
LEESBURG*      CLOUDY    30  25  80 W5        30.03S
MANASSAS*      MOCLDY    17  15  92 S3        30.06R
GAITHERSBURG*  CLOUDY    25  22  88 S5        30.02R

$$

MDZ006>007-011-014-160700-
BALTIMORE METRO

CITY           SKY/WX    TMP DP  RH WIND       PRES   REMARKS
BWI AIRPORT    PTCLDY    20  19  96 SW3       30.03R
MD SCIENCE CTR   N/A     26  22  84 MISG      30.02R
MARTIN STATE   PTCLDY    19  19 100 CALM      30.05R FOG
ANNAPOLIS      CLEAR     25  24  96 SW7       30.03R
FORT MEADE*    CLEAR     19  18  93 CALM      30.06R

$$

MDZ012-015-019>023-160700-
MARYLAND EASTERN SHORE

CITY           SKY/WX    TMP DP  RH WIND       PRES   REMARKS
OCEAN CITY     CLEAR     26  25  96 W7        30.05R FOG
SALISBURY      CLEAR     26  25  96 W6        30.05R FOG
BAY BRIDGE AP* CLEAR     28  27  93 MISG      30.04R
CAMBRIDGE*     CLEAR     25  25 100 SW3       30.05R
EASTON*        CLEAR     28  25  89 W3        30.07R

$$

MDZ017>025-160700-
SOUTHERN MARYLAND

CITY           SKY/WX    TMP DP  RH WIND       PRES   REMARKS
PATUXENT RIVER CLEAR     25  24  96 SW8       30.06R WCI  16
ST INIGOES     CLEAR     31  24  75 W7        30.06R
LEONARDTOWN*   CLEAR     27  25  93 SW3       30.07R

$$

MDZ003>005-160700-
NORTH CENTRAL MARYLAND

CITY           SKY/WX    TMP DP  RH WIND       PRES   REMARKS
FREDERICK*     CLOUDY    34  16  47 W12G22    30.04R WCI  25
HAGERSTOWN APT CLOUDY    33  15  47 W16G35    29.97S WCI  23
WESTMINSTER*   CLOUDY    28  21  74 W8          N/A  WCI  20

$$

MDZ501>502-160700-
WESTERN MARYLAND

CITY           SKY/WX    TMP DP  RH WIND       PRES   REMARKS
OAKLAND*       MOCLDY    21  14  73 W10G26    29.87R WCI  10
CUMBERLAND*    CLOUDY    32  19  59 NW5G28    30.06R

$$

VAZ025>031-160700-
SHENANDOAH VALLEY

CITY           SKY/WX    TMP DP  RH WIND       PRES   REMARKS
WINCHESTER*    CLOUDY    32  16  51 W15G26    30.00S WCI  22
FRONT ROYAL*   CLOUDY    30  18  59 MISG      30.01R
LURAY*         CLEAR     32  19  59 SW7       30.01S
NEW MARKET*    CLOUDY    30  15  53 CALM      30.01S
STAUNTON*      CLEAR     26  15  63 W5        30.03S
WAYNESBORO*    CLEAR     27  15  61 CALM      30.01R

$$

WVZ021-048>050-054>055-160700-
EASTERN WEST VIRGINIA PANHANDLE

CITY           SKY/WX    TMP DP  RH WIND       PRES   REMARKS
MARTINSBURG    CLOUDY    34  16  47 W13G24    30.00R WCI  25
PETERSBURG*    CLOUDY    32  16  52 W7        30.03R

$$

VAZ036>039-050-160700-
CENTRAL FOOTHILLS

CITY           SKY/WX    TMP DP  RH WIND       PRES   REMARKS
CHARLOTTESVILL CLEAR     31  16  54 SW6       30.04R
CULPEPER*      FAIR      15  12  85 CALM      30.06S
ORANGE*        CLEAR     18  16  93 CALM      30.05S
GORDONSVILLE*  CLEAR     17  16  94 MISG      30.05R
WARRENTON*     CLEAR     19  15  84 SW5       30.04S

$$

VAZ055>057-160700-
NORTH AND CENTRAL PIEDMONT

CITY           SKY/WX    TMP DP  RH WIND       PRES   REMARKS
FREDERICKSBRG* CLEAR     20  20  98 CALM      30.06S
STAFFORD*      CLEAR     18  18 100 CALM      30.10S

$$

NCZ024-NYZ072-PAZ021-071-VAZ022-071-160700-
OTHER REGIONAL OBSERVATIONS

CITY           SKY/WX    TMP DP  RH WIND       PRES   REMARKS
NEW YORK CITY  CLEAR     23  18  81 VRB3      29.92R
PHILADELPHIA   CLEAR     21  17  84 W9        30.00R WCI  11
PITTSBURGH     CLOUDY    29  18  63 SW14      29.98S WCI  18
ROANOKE        CLOUDY    33  18  53 W22G33    30.08S WCI  21
RICHMOND       CLEAR     31  19  61 W3        30.08R
RALEIGH        PTCLDY    29  22  75 W3        30.13S

$$

ANZ530>537-160700-
MARINE OBSERVATIONS

STATION/POSITION TIME  TEMP    WIND        PRES
                       AIR SEA DIR/SP/G
                 (UTC) (F)     (DEG/KT/KT) (MB)
THOMAS PT LIGHT  0600   30 42  240/ 11/ 12   N/A
BALT KEY BRIDGE  0542   26     230/ 10/ 13 1016.8R
COVE POINT       0542   29     270/ 10/ 13 1018.3R
LEWISETTA        0542   29 39  270/  8/  9 1018.2R
SOLOMONS ISLAND  0542   30 45  260/  7/  9 1017.7R
PINEY POINT      0548          310/ 10/ 11   N/A

$$





USA.gov is the U.S. government's official web portal to all federal, state and local government web resources and services.